CW6404 Weather Reports


Display with metric or nautical units.
time (UTC)temp
F
wind
direction
speed
MPH
gust
MPH
rain 1hr
in
rain 24hr
in
rain mn
in
humidity
%
barometer
mb
20260505003754 68 161 0.0 1.0 0.00 0.00 0.00 41 1008.8
20260505003255 68 173 0.0 1.0 0.00 0.00 0.00 41 1008.8
20260505003024 68 165 0.0 0.0 0.00 0.00 0.00 40 1008.9
20260505002528 69 165 0.0 0.0 0.00 0.00 0.00 40 1008.9
20260505002024 69 164 0.0 0.0 0.00 0.00 0.00 39 1009.0
20260505001517 69 163 0.0 0.0 0.00 0.00 0.00 38 1009.0
20260505000748 70 152 0.0 0.0 0.00 0.00 0.00 38 1009.0
20260505000223 70 150 0.0 0.0 0.00 0.00 0.00 38 1009.0
20260505000211 71 150 0.0 0.0 0.00 0.00 0.00 37 1008.9
20260504235434 71 185 0.0 1.0 0.00 0.00 0.00 37 1009.0
20260504234703 71 186 0.0 2.0 0.00 0.00 0.00 36 1009.0
20260504234206 71 195 0.0 10.0 0.00 0.00 0.00 36 1009.0
20260504233937 72 196 1.0 13.0 0.00 0.00 0.00 36 1009.0
20260504233202 72 182 0.0 13.0 0.00 0.00 0.00 35 1009.0
20260504232703 72 173 0.0 9.0 0.00 0.00 0.00 35 1008.9
20260504232157 73 179 1.0 9.0 0.00 0.00 0.00 35 1008.9
20260504231656 73 184 1.0 9.0 0.00 0.00 0.00 35 1008.8
20260504231427 73 177 1.0 9.0 0.00 0.00 0.00 35 1008.8
20260504230926 74 169 0.0 3.0 0.00 0.00 0.00 35 1008.7
20260504230157 74 202 1.0 9.0 0.00 0.00 0.00 35 1008.7
20260504225648 74 157 1.0 9.0 0.00 0.00 0.00 34 1008.8
20260504225147 74 163 0.0 3.0 0.00 0.00 0.00 35 1008.7
20260504224656 74 171 2.0 11.0 0.00 0.00 0.00 34 1008.7
20260504224647 74 183 1.0 11.0 0.00 0.00 0.00 34 1008.7
20260504223643 75 217 1.0 9.0 0.00 0.00 0.00 33 1008.7
20260504223135 75 173 1.0 9.0 0.00 0.00 0.00 33 1008.7
20260504222635 75 173 1.0 10.0 0.00 0.00 0.00 33 1008.6
20260504222133 75 232 1.0 10.0 0.00 0.00 0.00 33 1008.6
20260504221633 76 219 1.0 8.0 0.00 0.00 0.00 32 1008.5
20260504221133 76 164 1.0 11.0 0.00 0.00 0.00 32 1008.7
20260504220630 76 150 2.0 12.0 0.00 0.00 0.00 32 1008.6
20260504220125 76 258 2.0 12.0 0.00 0.00 0.00 31 1008.5
20260504215624 76 160 2.0 9.0 0.00 0.00 0.00 31 1008.5
20260504215122 76 173 1.0 12.0 0.00 0.00 0.00 31 1008.7
20260504214622 76 188 2.0 12.0 0.00 0.00 0.00 31 1008.7
20260504214115 76 190 3.0 15.0 0.00 0.00 0.00 31 1008.7
20260504213615 76 213 3.0 15.0 0.00 0.00 0.00 31 1008.8
20260504213115 76 192 2.0 10.0 0.00 0.00 0.00 32 1008.8
20260504212614 76 158 1.0 9.0 0.00 0.00 0.00 32 1008.8
20260504212114 75 241 2.0 11.0 0.00 0.00 0.00 31 1008.8
20260504211608 75 163 2.0 11.0 0.00 0.00 0.00 31 1008.8
20260504211105 75 273 4.0 12.0 0.00 0.00 0.00 32 1008.8
20260504210604 75 246 3.0 12.0 0.00 0.00 0.00 30 1008.8
20260504210336 75 211 1.0 7.0 0.00 0.00 0.00 33 1008.8
20260504205605 75 216 2.0 12.0 0.00 0.00 0.00 33 1008.9
20260504205103 75 274 2.0 12.0 0.00 0.00 0.00 31 1008.9
20260504204604 75 232 1.0 9.0 0.00 0.00 0.00 31 1009.0
20260504204053 75 240 2.0 10.0 0.00 0.00 0.00 31 1009.0
20260504203542 75 176 3.0 13.0 0.00 0.00 0.00 31 1009.1
20260504203038 75 193 2.0 13.0 0.00 0.00 0.00 31 1009.0
20260504202539 75 153 2.0 11.0 0.00 0.00 0.00 31 1009.3
20260504202038 75 217 1.0 11.0 0.00 0.00 0.00 30 1009.2
20260504201535 75 215 2.0 11.0 0.00 0.00 0.00 32 1009.2
20260504201030 74 221 4.0 12.0 0.00 0.00 0.00 31 1009.3
20260504200526 75 251 3.0 12.0 0.00 0.00 0.00 31 1009.3
20260504200027 75 255 2.0 10.0 0.00 0.00 0.00 32 1009.3
20260504195525 74 238 3.0 10.0 0.00 0.00 0.00 31 1009.3
20260504195024 74 248 2.0 10.0 0.00 0.00 0.00 31 1009.4
20260504194525 75 274 2.0 10.0 0.00 0.00 0.00 32 1009.4
20260504194023 75 252 3.0 11.0 0.00 0.00 0.00 32 1009.7
20260504193522 74 240 2.0 11.0 0.00 0.00 0.00 31 1009.6
20260504193022 74 281 1.0 7.0 0.00 0.00 0.00 32 1009.7
20260504192522 74 219 1.0 5.0 0.00 0.00 0.00 30 1009.7
20260504192011 75 275 1.0 5.0 0.00 0.00 0.00 30 1009.9
20260504191505 74 182 3.0 11.0 0.00 0.00 0.00 31 1009.9
20260504191003 74 172 4.0 14.0 0.00 0.00 0.00 29 1009.9
20260504190735 74 252 3.0 17.0 0.00 0.00 0.00 31 1009.9
20260504190002 74 290 3.0 17.0 0.00 0.00 0.00 31 1010.0
20260504185512 73 212 2.0 11.0 0.00 0.00 0.00 31 1010.1
20260504185501 74 171 3.0 11.0 0.00 0.00 0.00 31 1010.0
20260504184733 74 299 2.0 11.0 0.00 0.00 0.00 30 1010.2
20260504184227 73 229 2.0 11.0 0.00 0.00 0.00 32 1010.2
20260504183456 74 223 3.0 11.0 0.00 0.00 0.00 30 1010.2
20260504182954 74 254 3.0 9.0 0.00 0.00 0.00 30 1010.3
20260504182454 73 219 2.0 9.0 0.00 0.00 0.00 31 1010.3
20260504181954 73 252 2.0 7.0 0.00 0.00 0.00 32 1010.5
20260504181452 73 304 2.0 7.0 0.00 0.00 0.00 29 1010.7
20260504180950 73 252 2.0 7.0 0.00 0.00 0.00 31 1010.6
20260504180440 73 254 1.0 7.0 0.00 0.00 0.00 30 1010.7
20260504175929 73 255 1.0 5.0 0.00 0.00 0.00 30 1010.8
20260504175427 72 309 1.0 10.0 0.00 0.00 0.00 32 1010.8
20260504174922 72 278 2.0 14.0 0.00 0.00 0.00 29 1010.8
20260504174652 72 236 2.0 14.0 0.00 0.00 0.00 32 1010.9
20260504174156 73 215 1.0 7.0 0.00 0.00 0.00 33 1011.0
20260504173414 72 258 1.0 5.0 0.00 0.00 0.00 32 1011.0
20260504173143 72 302 2.0 6.0 0.00 0.00 0.00 32 1011.1
20260504172413 72 284 2.0 9.0 0.00 0.00 0.00 31 1011.2
20260504171916 72 265 2.0 9.0 0.00 0.00 0.00 33 1011.3
20260504171413 71 306 1.0 7.0 0.00 0.00 0.00 31 1011.4
20260504170912 71 283 1.0 10.0 0.00 0.00 0.00 31 1011.5
20260504170409 72 280 2.0 10.0 0.00 0.00 0.00 31 1011.6
20260504160353 69 204 2.0 15.0 0.00 0.00 0.00 36 1012.0
20260504150832 67 229 1.0 5.0 0.00 0.00 0.00 44 1012.4
20260504150331 67 236 2.0 7.0 0.00 0.00 0.00 41 1012.4
20260504141251 64 180 2.0 12.0 0.00 0.00 0.00 50 1012.7
20260504140749 64 213 2.0 7.0 0.00 0.00 0.00 52 1012.8
20260504140250 64 229 2.0 10.0 0.00 0.00 0.00 52 1012.8
20260504130742 61 225 2.0 10.0 0.00 0.00 0.00 65 1013.3
20260504130240 60 204 1.0 10.0 0.00 0.00 0.00 64 1013.3
20260504120222 55 174 0.0 3.0 0.00 0.00 0.00 81 1013.7
20260504110133 52 208 0.0 4.0 0.00 0.00 0.00 83 1014.0
20260504100542 51 225 0.0 3.0 0.00 0.00 0.00 82 1014.0
20260504081851 49 171 1.0 9.0 0.00 0.00 0.00 79 1014.0
20260504081351 49 168 1.0 5.0 0.00 0.00 0.00 78 1013.9
20260504080848 49 172 1.0 5.0 0.00 0.00 0.00 78 1014.0
20260504080617 48 168 1.0 5.0 0.00 0.00 0.00 78 1014.0
20260504080111 48 169 1.0 5.0 0.00 0.00 0.00 77 1014.0
20260504060128 49 207 0.0 0.0 0.00 0.00 0.00 62 1013.9
20260504050457 48 221 0.0 0.0 0.00 0.00 0.00 62 1014.1
20260504045945 48 221 0.0 0.0 0.00 0.00 0.00 62 1014.1
20260504045428 48 221 0.0 0.0 0.00 0.00 0.00 61 1014.2
20260504044907 48 224 0.0 0.0 0.00 0.00 0.00 62 1014.1
20260504044639 47 226 0.0 0.0 0.00 0.00 0.00 62 1014.0
20260504043901 47 226 0.0 0.0 0.00 0.00 0.00 62 1014.0
20260504043351 47 226 0.0 0.0 0.00 0.00 0.00 62 1013.9
20260504043109 47 226 0.0 0.0 0.00 0.00 0.00 62 1013.9
20260504042336 47 226 0.0 0.0 0.00 0.00 0.00 62 1013.9
20260504041817 47 226 0.0 0.0 0.00 0.00 0.00 62 1013.9
20260504041312 47 227 0.0 0.0 0.00 0.00 0.00 62 1013.8
20260504040808 47 226 0.0 0.0 0.00 0.00 0.00 61 1013.7
20260504040310 47 227 0.0 0.0 0.00 0.00 0.00 61 1013.7
20260504040305 47 227 0.0 0.0 0.00 0.00 0.00 61 1013.6
20260504035304 47 227 0.0 0.0 0.00 0.00 0.00 61 1013.7
20260504034801 47 282 0.0 0.0 0.00 0.00 0.00 60 1013.7
20260504034249 47 282 0.0 0.0 0.00 0.00 0.00 60 1013.7
20260504033737 47 282 0.0 0.0 0.00 0.00 0.00 60 1013.6
20260504033219 47 282 0.0 0.0 0.00 0.00 0.00 60 1013.6
20260504032713 47 282 0.0 0.0 0.00 0.00 0.00 60 1013.6
20260504032159 47 282 0.0 0.0 0.00 0.00 0.00 60 1013.5
20260504031627 47 282 0.0 0.0 0.00 0.00 0.00 60 1013.3
20260504031402 47 282 0.0 0.0 0.00 0.00 0.00 59 1013.4
20260504030617 47 282 0.0 0.0 0.00 0.00 0.00 59 1013.3
20260504030111 47 282 0.0 0.0 0.00 0.00 0.00 59 1013.4
20260504025610 47 282 0.0 0.0 0.00 0.00 0.00 59 1013.3
20260504025102 47 282 0.0 0.0 0.00 0.00 0.00 59 1013.3
20260504024555 48 282 0.0 0.0 0.00 0.00 0.00 59 1013.3
20260504024046 48 282 0.0 0.0 0.00 0.00 0.00 58 1013.3
20260504023533 48 282 0.0 0.0 0.00 0.00 0.00 57 1013.3
20260504023021 48 282 0.0 0.0 0.00 0.00 0.00 57 1013.3
20260504023013 48 282 0.0 0.0 0.00 0.00 0.00 57 1013.3
20260504022003 49 282 0.0 0.0 0.00 0.00 0.00 57 1013.3
20260504021445 49 282 0.0 0.0 0.00 0.00 0.00 57 1013.3
20260504020943 49 282 0.0 0.0 0.00 0.00 0.00 56 1013.3
20260504020441 49 282 0.0 0.0 0.00 0.00 0.00 55 1013.2
20260504015935 49 282 0.0 0.0 0.00 0.00 0.00 55 1013.3
20260504015436 50 282 0.0 0.0 0.00 0.00 0.00 54 1013.3
20260504014903 50 282 0.0 0.0 0.00 0.00 0.00 54 1013.3
20260504014633 50 282 0.0 0.0 0.00 0.00 0.00 53 1013.3
20260504013859 50 282 0.0 0.0 0.00 0.00 0.00 53 1013.3
20260504013350 51 282 0.0 0.0 0.00 0.00 0.00 52 1013.3
20260504012849 51 282 0.0 0.0 0.00 0.00 0.00 52 1013.3
20260504012337 51 282 0.0 0.0 0.00 0.00 0.00 52 1013.2
20260504011759 51 282 0.0 0.0 0.00 0.00 0.00 51 1013.2
20260504011301 52 282 0.0 0.0 0.00 0.00 0.00 50 1013.0
20260504010742 52 282 0.0 0.0 0.00 0.00 0.00 49 1013.0
20260504010239 52 282 0.0 0.0 0.00 0.00 0.00 48 1012.9
20260504005707 53 282 0.0 0.0 0.00 0.00 0.00 48 1013.0
20260504005201 53 282 0.0 0.0 0.00 0.00 0.00 48 1013.0
20260504004700 53 282 0.0 0.0 0.00 0.00 0.00 47 1012.8
20260504004154 54 282 0.0 0.0 0.00 0.00 0.00 46 1012.8